TOP > 外国特許検索

外国特許検索

表示件数 詳細検索
特許の状態
出願国

リセット

該当件数 5087件

No. 出願番号
公報番号
出願国
発明の名称
掲載日
更新日
データ提供機関
701 2014JP064984 WO 2015001908 世界知的所有権機関(WIPO) CODE EVALUATION DEVICE, CODE EVALUATION SYSTEM, AND CODE EVALUATION METHOD AND PROGRAM 2015/04/03 2015/07/14 鹿児島大学
702 2014JP069824 WO 2015016178 世界知的所有権機関(WIPO) FUNCTION INHIBITOR OF APOPTOSIS-ASSOCIATED SPECK-LIKE PROTEIN CONTAINING CARD COMPRISING 1,5-D-ANHYDROFRUCTOSE 2015/04/03 2015/07/14 鹿児島大学
703 2014JP068880 WO 2015008779 世界知的所有権機関(WIPO) NOVEL PYRANONE CARBOXAMIDE DERIVATIVE AND USE THEREOF AS ANTI-HEPATITIS C VIRUS AGENT 2015/04/03 2015/07/14 鹿児島大学
704 2014JP065259 WO 2014196653 世界知的所有権機関(WIPO) SIGNAL CONTROL APPARATUS 2015/04/03 2015/07/22 九州工業大学
705 2014JP066635 WO 2014208525 世界知的所有権機関(WIPO) PATCH-TYPE ARTIFICIAL SKIN PREPARATION 2015/04/03 2015/07/21 佐賀大学
706 2014JP003809 WO 2015011907 世界知的所有権機関(WIPO) K-NEAREST NEIGHBORS ASSOCIATIVE MEMORY 2015/04/03 2016/09/30 広島大学
707 2014JP003048 WO 2014199614 世界知的所有権機関(WIPO) METHOD FOR MANUFACTURING SILICON-CARBIDE SEMICONDUCTOR ELEMENT 2015/04/02 2015/07/21 関西学院大学
708 2014JP003049 WO 2014199615 世界知的所有権機関(WIPO) METHOD FOR TREATING SURFACE OF SILICON-CARBIDE SUBSTRATE 2015/04/02 2015/07/21 関西学院大学
709 2013JP073039 WO 2014034732 世界知的所有権機関(WIPO) NUCLEIC ACID MODIFICATION DEVICE, NUCLEIC ACID MODIFICATION METHOD, AND METHOD FOR AMPLIFYING NUCLEIC ACID コモンズ 2015/03/31 2016/09/30 神奈川大学
710 2014JP059947 WO 2014181619 世界知的所有権機関(WIPO) DISTANCE MEASUREMENT DEVICE 2015/03/31 2015/08/25 静岡大学
711 2014JP062215 WO 2014181786 世界知的所有権機関(WIPO) CRYSTALLIZATION-PROMOTING POLYPEPTIDE 新技術説明会 2015/03/31 2015/08/25 北海道大学
712 2014JP067861 WO 2015002282 世界知的所有権機関(WIPO) LIGAND, AND RARE EARTH COMPLEX 2015/03/31 2015/08/25 北海道大学
713 2014JP067909 WO 2015002295 世界知的所有権機関(WIPO) SHEET LAMINATE-TYPE RARE EARTH COMPLEX, AND USE THEREOF 2015/03/31 2015/08/25 北海道大学
714 2014JP067980 WO 2015005248 世界知的所有権機関(WIPO) DRUG FOR TREATING/PREVENTING ALLERGIC RESPIRATORY TRACT INFLAMMATION 2015/03/31 2015/07/14 筑波大学
715 2014JP001426 WO 2014148017 世界知的所有権機関(WIPO) POLYMER ACTUATOR AND ARTIFICIAL LUNG DEVICE PROVIDED WITH SAME 新技術説明会 2015/03/27 2015/07/22 広島大学
716 2014JP054546 WO 2014136619 世界知的所有権機関(WIPO) LIGHT UP-CONVERSION LUMINESCENT SUBSTANCE 2015/03/27 2015/08/25 静岡大学
717 2014JP056073 WO 2014136974 世界知的所有権機関(WIPO) COMPOSITION THAT RECOGNIZES ANTIBODIES STEMMING FROM IMMUNE-MEDIATED PERIPHERAL NEUROPATHY AND USE FOR SAID COMPOSITION 2015/03/27 2015/08/24 鹿児島大学
718 2014JP055532 WO 2014136807 世界知的所有権機関(WIPO) CELL-DEATH INHIBITOR, AND NOVEL COMPOUND 2015/03/27 2015/08/25 岡山大学
719 2014JP055533 WO 2014136808 世界知的所有権機関(WIPO) CELL-DEATH INHIBITOR, AND PRODUCTION METHOD THEREFOR 2015/03/27 2015/08/25 岡山大学
720 2014JP060665 WO 2014171434 世界知的所有権機関(WIPO) TREATMENT AGENT FOR COGNITIVE DISORDERS, INDUCED BY AMYLOID β-PROTEIN, THERAPEUTIC AGENT FOR ALZHEIMER'S DISEASE, AND TREATMENT METHOD AND PATHOLOGICAL ANALYSIS METHOD RELATED TO THESE 2015/03/27 2015/08/25 岡山大学
721 2014JP063850 WO 2014192698 世界知的所有権機関(WIPO) THERAPEUTIC AGENT FOR PAIN 2015/03/27 2015/08/25 岡山大学
722 2014JP063398 WO 2014189065 世界知的所有権機関(WIPO) WATER-BASED LUBRICANT 新技術説明会 2015/03/27 2015/08/25 岡山大学
723 2014JP060833 WO 2014178283 世界知的所有権機関(WIPO) PRODUCTION METHOD FOR FINE METAL PARTICLES, PRODUCTION METHOD FOR FUEL CELL ELECTRODE CATALYST, SUPPORTED FINE METAL PARTICLE CATALYST, AND FUEL CELL ELECTRODE CATALYST 2015/03/27 2015/07/21 山梨大学
724 2014JP064920 WO 2014203738 世界知的所有権機関(WIPO) COMPOSITION FOR NEW BONE FORMATION, AND NEW BONE FORMATION SYSTEM 2015/03/27 2015/08/21 名古屋大学
725 2014JP068506 WO 2015016036 世界知的所有権機関(WIPO) BIOMARKER FOR TESTING POSSIBILITY OF FERTILIZATION OF OVUM AND DETERMINATION USING SAME 2015/03/27 2015/08/24 福井大学
726 2014JP060435 WO 2014168218 世界知的所有権機関(WIPO) POLYVALENT METAL SECONDARY BATTERY 新技術説明会 2015/03/27 2015/07/21 京都大学
727 2014JP002571 WO 2014185078 世界知的所有権機関(WIPO) X-RAY CT IMAGE PROCESSING METHOD, X-RAY CT IMAGE PROCESSING PROGRAM, AND X-RAY CT IMAGE DEVICE 2015/03/27 2015/08/25 京都大学
728 2014JP063363 WO 2014189051 世界知的所有権機関(WIPO) POWER PACKET GENERATION DEVICE, POWER ROUTER, AND POWER NETWORK 新技術説明会 2015/03/27 2015/07/21 京都大学
729 2014JP060185 WO 2014168143 世界知的所有権機関(WIPO) POLYPEPTIDE FOR FORSTER RESONANCE ENERGY TRANSFER 2015/03/27 2015/08/25 北海道大学
730 2014JP056948 WO 2014167943 世界知的所有権機関(WIPO) PROTEIN-CONTAINING COMPONENT FOR INDUCING CELL RE-PROGRAMMING, METHOD FOR MANUFACTURING PLURIPOTENT CELLS USING SAID COMPONENT, AND MEDIUM COMPRISING SAID COMPONENT 新技術説明会 2015/03/27 2015/08/24 熊本大学
731 2014JP058947 WO 2014157550 世界知的所有権機関(WIPO) POROUS SUBSTRATE ELECTRODE BODY AND METHOD FOR PRODUCING SAME 2015/03/27 2016/09/30 東北大学
732 2014JP064633 WO 2014196503 世界知的所有権機関(WIPO) MATERIAL FOR REGENERATION OF PERIODONTAL TISSUE 2015/03/27 2015/07/21 日大NUBIC
733 2014JP063181 WO 2014188994 世界知的所有権機関(WIPO) METHOD FOR AMPLIFYING CELL USING AMINO ACID PREPARATION 2015/03/27 2015/08/24 横浜市立大学
734 2014JP002071 WO 2014171116 世界知的所有権機関(WIPO) VACCINE PREPARATION AGAINST MALARIAL PARASITE INFECTION 2015/03/27 2016/09/30 帯広畜産大学
735 2014JP064817 WO 2014196557 世界知的所有権機関(WIPO) METHOD FOR PRODUCING OPTICALLY ACTIVE 2-[(1,2,3,6-TETRAHYDROPYRIDIN-4-YL)METHYL]-2-FLUORO-2,3- DIHYDROINDEN-1-ONE コモンズ 2015/03/27 2015/07/21 名古屋工業大学
736 2014JP059872 WO 2014163153 世界知的所有権機関(WIPO) MASS SPECTROMETRY METHOD AND MASS SPECTROMETRY DATA PROCESSOR 2015/03/26 2015/08/24 横浜市立大学
737 2014JP057673 WO 2014148592 世界知的所有権機関(WIPO) METHOD FOR PREPARING CHONDROCYTES 2015/03/26 2015/08/24 横浜市立大学
738 2014JP059351 WO 2014157703 世界知的所有権機関(WIPO) VITAL STAIN 新技術説明会 2015/03/26 2015/07/22 三重大学
739 2014JP061366 WO 2014175305 世界知的所有権機関(WIPO) PEPTIDE-PRESENTING PROTEIN AND PEPTIDE LIBRARY EMPLOYING SAME 新技術説明会 2015/03/26 2015/07/21 東京工業大学
740 2014JP058988 WO 2014157565 世界知的所有権機関(WIPO) PHOTORESPONSIVE NUCLEOTIDE ANALOGUE HAVING PHOTOCROSSLINKING ABILITY コモンズ 2015/03/26 2015/07/21 北陸先端科学技術大学院大学
741 2014JP055698 WO 2014156527 世界知的所有権機関(WIPO) METHOD AND KIT FOR DETERMINING ONSET RISK OF ESOPHAGEAL CANCER 2015/03/26 2016/09/30 東北大学
742 2014JP055471 WO 2014156511 世界知的所有権機関(WIPO) ELECTRICITY STORAGE DEVICE AND ELECTRODE MATERIAL THEREFOR 2015/03/26 2016/09/30 東北大学
743 2014JP059082 WO 2014157606 世界知的所有権機関(WIPO) CROSSLINKED HYDROPHOBIZED-POLYSACCHARIDE NANOGEL PARTICLES AND MANUFACTURING METHOD THEREFOR 2015/03/26 2016/09/29 京都大学
744 2014JP058711 WO 2014157434 世界知的所有権機関(WIPO) N-GLYCOSYL ACID AMIDE AMINO ACID-NUCLEIC ACID DERIVATIVE AND METHOD FOR PRODUCING SAME 新技術説明会 2015/03/26 2015/07/21 高知大学
745 2014JP059838 WO 2014163142 世界知的所有権機関(WIPO) OPHTHALMIC COMPOSITION 2015/03/26 2015/08/21 四国TLO
746 2014JP058086 WO 2014157086 世界知的所有権機関(WIPO) IMAGING DEVICE 2015/03/26 2015/08/25 静岡大学
747 2014JP057833 WO 2014156986 世界知的所有権機関(WIPO) SILICON SINGLE CRYSTAL PRODUCTION APPARATUS, AND SILICON SINGLE CRYSTAL PRODUCTION METHOD 2015/03/26 2015/08/25 九州大学
748 2014JP057776 WO 2014156958 世界知的所有権機関(WIPO) NANO-CAPSULE, COMPOSITION, POLYNUCLEOTIDE, RECOMBINANT VECTOR, AND TRANSFORMANT 新技術説明会 2015/03/26 2015/08/25 九州大学
749 2014JP056963 WO 2014148396 世界知的所有権機関(WIPO) PLANT PROTECTION AGENT AND METHOD FOR CONTROLLING PLANT DISEASE 新技術説明会 2015/03/26 2015/08/25 岡山大学
750 2014JP059034 WO 2014157584 世界知的所有権機関(WIPO) METHOD FOR PRODUCING [18F]F- OR FLUORESCENT DYE-LABELED PEGYLATED BIOACTIVE SUBSTANCE, AND ANALYSIS OF IN VIVO KINETICS THEREOF 2015/03/26 2015/08/24 静岡県立大学
751 2014JP056652 WO 2014148347 世界知的所有権機関(WIPO) METHOD FOR FORMING POROUS SURFACE, METHOD FOR MANUFACTURING PHOTOCHEMICAL REACTOR, AND PHOTOCHEMICAL REACTOR コモンズ 2015/03/26 2015/07/22 信州大学
752 2014JP056872 WO 2014148377 世界知的所有権機関(WIPO) ENTEROBACTERIACEAE BACTERIA EXHIBITING INCREASED L-CYSTEINE PRODUCING ABILITY 2015/03/26 2015/07/21 奈良先端科学技術大学院大学
753 2014JP058627 WO 2014157380 世界知的所有権機関(WIPO) THERAPEUTIC AGENT FOR WOUNDS OR FIBROSIS 2015/03/26 2016/09/30 長崎大学
754 2014JP057936 WO 2014142356 世界知的所有権機関(WIPO) THERAPEUTIC AGENT FOR SCLERODERMA 2015/03/26 2015/07/21 鹿児島大学
755 2014JP069628 WO 2015012377 世界知的所有権機関(WIPO) OSTEOBLAST AND METHOD FOR PREPARING SAME 2015/03/26 2015/08/24 京都府立医科大学
756 2014JP054023 WO 2014141847 世界知的所有権機関(WIPO) THERAPEUTIC AGENT FOR SYSTEMIC BONE DISEASE AND USE THEREOF コモンズ 2015/03/26 2015/08/21 名古屋大学
757 2014JP057471 WO 2014148529 世界知的所有権機関(WIPO) DOUBLE-STRANDED NUCLEIC ACID MOLECULE, DNA, VECTOR, CANCER CELL PROLIFERATION INHIBITOR, AND PHARMACEUTICAL PRODUCT 2015/03/26 2016/09/30 埼玉医科大学
758 2014JP055860 WO 2014136909 世界知的所有権機関(WIPO) PHOSPHINE TRIPLY CROSS-LINKED BY ORGANIC POLYMER, TRANSITION METAL COMPLEX USING SAID PHOSPHINE AS A LIGAND, AND CATALYST 2015/03/26 2015/08/25 北海道大学
759 2014JP055080 WO 2014136681 世界知的所有権機関(WIPO) WATER-SOLUBLE FLAVONOID COMPOSITION; DRINK, FOOD, PHARMACEUTICAL PRODUCT AND COSMETIC PRODUCT, EACH OF WHICH CONTAINS SAME; AND METHOD FOR PRODUCING WATER-SOLUBLE FLAVONOID COMPOSITION 2015/03/26 2015/07/21 長崎大学
760 2014JP056070 WO 2014136972 世界知的所有権機関(WIPO) SUPRAMOLECULAR COMPLEX, LIGHT-EMITTING BODY, AND SENSOR ELEMENT FOR DETECTING ORGANIC COMPOUND 2015/03/25 2015/08/25 九州大学
761 2014JP055758 WO 2014136870 世界知的所有権機関(WIPO) SIMPLE DETECTION METHOD FOR RNA MODIFICATION, AND METHOD FOR DETECTING TYPE-II DIABETES USING SAID DETECTION METHOD コモンズ 2015/03/25 2015/08/24 熊本大学
762 2014JP053542 WO 2014126222 世界知的所有権機関(WIPO) RADIATION/CHEMOTHERAPY SENSITIZER TO BE USED FOR INTRATUMORAL LOCAL INJECTION AND FOR CONTROLLED RELEASE OF HYDROGEN PEROXIDE WITH HYDROGEL AS CARRIER 2015/03/25 2015/07/21 高知大学
763 2014JP053559 WO 2014129411 世界知的所有権機関(WIPO) PHARMACEUTICAL COMPOSITION CONTAINING ANTIBACTERIAL AGENT 2015/03/25 2015/07/21 鹿児島大学
764 2014JP055700 WO 2014136854 世界知的所有権機関(WIPO) PUNCTURE NEEDLE AND PUNCTURE-NEEDLE KIT コモンズ 新技術説明会 2015/03/25 2015/07/22 信州大学
765 2014JP052844 WO 2014123208 世界知的所有権機関(WIPO) AGROBACTERIUM HAVING HIGHLY EFFICIENT GENE TRANSFER ABILITY TO PLANT IMPARTED THERETO 2015/03/25 2015/07/21 筑波大学
766 2014JP053594 WO 2014126233 世界知的所有権機関(WIPO) METHOD FOR ASSAYING MICRORNA, CANCER THERAPEUTIC AGENT, AND MEDICINAL COMPOSITION CONTAINING SAME FOR CANCER THERAPY 2015/03/25 2015/08/25 東京医科歯科大学
767 2014JP054729 WO 2014133026 世界知的所有権機関(WIPO) SPEED-SENSORLESS MOTOR CONTROL DEVICE AND METHOD FOR STARTING SPEED-SENSORLESS MOTOR 2015/03/25 2015/07/21 東京工業大学
768 2014JP053263 WO 2014126127 世界知的所有権機関(WIPO) MEDICINAL COMPOSITION FOR TREATING NECROPTOSIS-RELATED DISEASE AND METHOD FOR SCREENING ACTIVE INGREDIENT THEREOF 2015/03/25 2015/08/25 北海道大学
769 2014JP056032 WO 2014136958 世界知的所有権機関(WIPO) HAND EXOSKELETON DEVICE コモンズ 2015/03/25 2015/08/25 九州大学
770 2014JP001919 WO 2014162737 世界知的所有権機関(WIPO) TAU AGGREGATION INHIBITOR 2015/03/25 2015/07/21 同志社大学
771 2014JP054796 WO 2014133055 世界知的所有権機関(WIPO) METHOD FOR EVALUATING SIDE-EFFECT ONSET RISK IN ANTICANCER DRUG TREATMENT, INCLUDING DETECTING MUC4 GENE POLYMORPHISM 2015/03/24 2016/09/30 埼玉医科大学
772 2014JP052860 WO 2014123213 世界知的所有権機関(WIPO) OXYGEN REDUCTION CATALYST, OXYGEN REDUCTION ELECTRODE, AND FUEL CELL 2015/03/24 2015/08/24 横浜市立大学
773 2014JP056873 WO 2014148378 世界知的所有権機関(WIPO) SURFACTANT-LIKE COMPOUND 新技術説明会 2015/03/24 2015/07/21 首都大学東京
774 2014JP053555 WO 2014126225 世界知的所有権機関(WIPO) KNOCK-IN MOUSE コモンズ 2015/03/24 2015/07/22 大阪市立大学
775 2014JP053037 WO 2014126040 世界知的所有権機関(WIPO) LOOP ANTENNA 2015/03/24 2015/08/21 四国TLO
776 2014JP054741 WO 2014133031 世界知的所有権機関(WIPO) PREPARATION METHOD FOR SOLID CATALYST AND PREPARATION METHOD FOR SILYL-SUBSTITUTED UNSATURATED COMPOUND USING SOLID CATALYST 2015/03/24 2016/09/29 京都大学
777 2014JP054326 WO 2014132919 世界知的所有権機関(WIPO) DIAGNOSTIC COMPOSITION 2015/03/24 2016/09/29 京都大学
778 2013JP082578 WO 2014097886 世界知的所有権機関(WIPO) OPTICAL DEVICE AND ANALYSIS APPARATUS 2015/03/23 2016/09/30 早稲田大学(早大TLO)
779 2014JP053813 WO 2014132843 世界知的所有権機関(WIPO) SIGNAL PROCESSING APPARATUS AND SIGNAL PROCESSING METHOD 2015/03/23 2016/09/30 早稲田大学(早大TLO)
780 2014JP053259 WO 2014126125 世界知的所有権機関(WIPO) RAPID ALLERGY TESTING METHOD 新技術説明会 2015/03/23 2015/07/21 福岡大学
781 2013JP084618 WO 2014104076 世界知的所有権機関(WIPO) TRANSFORMED EUGLENA AND PROCESS FOR PRODUCING SAME 2015/03/23 2015/08/24 大阪府立大学
782 2014JP051590 WO 2014115860 世界知的所有権機関(WIPO) VIRUCIDAL AGENT 2015/03/23 2015/08/24 大阪府立大学
783 2013JP007352 WO 2014091766 世界知的所有権機関(WIPO) APPARATUS FOR EVALUATING HUMAN MENTAL STATE 2015/03/23 2015/07/14 東京工業大学
784 2014JP053931 WO 2014129504 世界知的所有権機関(WIPO) ELECTROCONDUCTIVE NANOWIRE NETWORK, AND ELECTROCONDUCTIVE SUBSTRATE AND TRANSPARENT ELECTRODE USING SAME, AND METHOD FOR MANUFACTURING ELECTROCONDUCTIVE NANOWIRE NETWORK, ELECTROCONDUCTIVE SUBSTRATE, AND TRANSPARENT ELECTRODE 新技術説明会 2015/03/23 2015/07/21 東京工業大学
785 2013JP084818 WO 2014104172 世界知的所有権機関(WIPO) DYNAMIC ANALYSIS METHOD FOR POLYMER CHAIN, MANUFACTURING METHOD FOR POLYMER, POLYMER, MANUFACTURING METHOD FOR SYNTHETIC POLYMER, AND SYNTHETIC POLYMER 2015/03/23 2015/07/21 北陸先端科学技術大学院大学
786 2014JP000897 WO 2014136393 世界知的所有権機関(WIPO) PROCESSED SUBSTRATE AND SEMICONDUCTOR DEVICE USING SAME 2015/03/23 2015/08/24 山口大学
787 2014JP057567 WO 2014167968 世界知的所有権機関(WIPO) EXPRESSION OF TARGET PROTEIN IN PLANT SEED 2015/03/23 2016/09/30 自然科学研究機構(NINS)
788 2014JP050796 WO 2015008498 世界知的所有権機関(WIPO) AUTOANTIBODY DETECTION METHOD, METHOD FOR TESTING POSSIBILITY OF AUTOIMMUNE DISEASE CONTRACTION, AUTOANTIBODY DETECTION REAGENT, AND AUTOIMMUNE DISEASE TEST REAGENT 新技術説明会 2015/03/23 2015/07/14 大阪大学
789 2014JP053587 WO 2014129416 世界知的所有権機関(WIPO) INK SET, PRINTED MATTER AND PRINT METHOD 2015/03/23 2015/07/21 奈良先端科学技術大学院大学
790 2014JP053512 WO 2014126211 世界知的所有権機関(WIPO) N-TYPE THERMOELECTRIC CONVERSION MATERIAL, THERMOELECTRIC CONVERSION COMPONENT, AND MANUFACTURING METHOD FOR N-TYPE THERMOELECTRIC CONVERSION MATERIAL 2015/03/23 2015/07/21 奈良先端科学技術大学院大学
791 2014JP054733 WO 2014133029 世界知的所有権機関(WIPO) METHOD FOR SELECTING DOPANT, DOPANT COMPOSITION, METHOD FOR MANUFACTURING CARBON-NANOTUBE/DOPANT COMPOSITE, SHEET-FORM MATERIAL, AND CARBON-NANOTUBE/DOPANT COMPOSITE 2015/03/23 2015/07/21 奈良先端科学技術大学院大学
792 2013JP077403 WO 2014057957 世界知的所有権機関(WIPO) STEROID COMPOUND, AND MEDICINE COMPRISING SAME 2015/03/19 2016/09/30 早稲田大学(早大TLO)
793 2013JP078139 WO 2014061719 世界知的所有権機関(WIPO) PHOTOELECTRIC CONVERSION DEVICE, BUILT STRUCTURE, AND ELECTRONIC INSTRUMENT 新技術説明会 2015/03/19 2015/08/25 北海道大学
794 2013JP078203 WO 2014065192 世界知的所有権機関(WIPO) NUCLEIC ACID EXTRACTION DEVICE AND MANUFACTURING METHOD OF SAID DEVICE, NUCLEIC ACID EXTRACTION METHOD AND NUCLEIC ACID SEQUENCE ANALYSIS METHOD 2015/03/19 2015/08/21 名古屋大学
795 2013JP077617 WO 2014069208 世界知的所有権機関(WIPO) PLATINUM CORE SHELL CATALYST, MANUFACTURING METHOD FOR SAME, AND FUEL CELL USING SAME 2015/03/19 2015/07/14 同志社大学
796 2013JP006488 WO 2014068991 世界知的所有権機関(WIPO) IDENTIFICATION OF TRANSPORTER RESPONSIBLE FOR CHEMICAL TRANSMISSION OF POLYAMINE AND USE THEREOF 2015/03/19 2015/08/25 岡山大学
797 2013JP079890 WO 2014073529 世界知的所有権機関(WIPO) MEDICINE COMPRISING MODULATOR OF ACTIVITY OF CD300a-EXPRESSING CELL ASSOCIATED WITH ALLERGIC DISEASE, CD300a GENE KNOCK-OUT MOUSE, AND USE OF MODULATOR OF ACTIVITY OF CD300a-EXPRESSING CELL 2015/03/19 2015/07/14 筑波大学
798 2013JP080352 WO 2014073674 世界知的所有権機関(WIPO) METHOD FOR MANUFACTURING USEFUL SUBSTANCE IN WHICH HIGH-DENSITY CULTURED STRAIN OF FILAMENTOUS FUNGI IS USED 2015/03/19 2016/09/30 東北大学
799 2013JP080577 WO 2014073702 世界知的所有権機関(WIPO) POSITIVE ELECTRODE ACTIVE MATERIAL AND SECONDARY BATTERY USING SAME 2015/03/19 2015/08/25 九州大学
800 2014JP060356 WO 2014163213 世界知的所有権機関(WIPO) ANTI-TUMOR DNA VACCINE 2015/03/19 2015/08/25 九州大学

(8/51ページ)

PAGE TOP